Change the Weather History Date:

Saturday, January 12, 2013

  Actual Average Record
Temperature  
Mean Temperature 68 °F -  
Max Temperature 71 °F 47 °F 46 °F (2015)
Min Temperature 64 °F 31 °F 32 °F (2015)
Cooling Degree Days 2    
Growing Degree Days 18 (Base 50)    
Moisture  
Dew Point 65 °F    
Average Humidity 91    
Maximum Humidity 100    
Minimum Humidity 78    
Precipitation  
Precipitation 0.00 in - - ()
Sea Level Pressure  
Sea Level Pressure 29.87 in    
Wind  
Wind Speed 7 mph (SSE)    
Max Wind Speed 16 mph    
Max Gust Speed -    
Visibility 8 miles    
Events Rain    
Averages and records for this station are not official NWS values.
T = Trace of Precipitation, MM = Missing Value Source: NWS Daily Summary

Daily Weather History Graph

Daily Weather History Graph

Search for Another Location

Airport or City:

Trip Planner

Search our weather history database for the weather conditions in past years. The results will help you decide how hot, cold, wet, or windy it might be!

Date:

Astronomy

Jan. 12, 2013 Rise Set
Actual Time 7:08 AM CST 5:07 PM CST
Civil Twilight 6:40 AM CST 5:35 PM CST
Nautical Twilight 6:09 AM CST 6:06 PM CST
Astronomical Twilight 5:38 AM CST 6:37 PM CST
Moon 7:30 AM CST (1/12) 6:32 PM CST (1/12)
Length of Visible Light 10h 54m
Length of Day
9h 59m
New Moon, 1% of the Moon is Illuminated
Jan 12
New Moon
Jan 18
First Quarter
Jan 26
Full
Feb 3
Last Quarter
Feb 10
New

Hourly Weather History & Observations

Time (CST) Temp. Dew Point Humidity Pressure Visibility Wind Dir Wind Speed Gust Speed Precip Events Conditions
12:55 AM 64.4 °F 62.6 °F 94% 29.95 in 10.0 mi South 5.8 mph - N/A   Mostly Cloudy
1:55 AM 64.4 °F 64.4 °F 100% 29.96 in 10.0 mi South 4.6 mph - N/A   Overcast
2:15 AM 66.2 °F 64.4 °F 94% 29.95 in 10.0 mi South 4.6 mph - N/A   Overcast
2:35 AM 66.2 °F 64.4 °F 94% 29.95 in 10.0 mi South 4.6 mph - N/A   Overcast
2:55 AM 66.2 °F 64.4 °F 94% 29.94 in 8.0 mi South 4.6 mph - N/A   Overcast
3:15 AM 66.2 °F 64.4 °F 94% 29.94 in 10.0 mi South 5.8 mph - N/A   Overcast
3:35 AM 66.2 °F 64.4 °F 94% 29.93 in 10.0 mi South 6.9 mph - N/A   Overcast
3:55 AM 66.2 °F 64.4 °F 94% 29.93 in 10.0 mi South 6.9 mph - N/A   Overcast
4:15 AM 66.2 °F 66.2 °F 100% 29.93 in 10.0 mi SSE 5.8 mph - N/A   Overcast
4:35 AM 66.2 °F 66.2 °F 100% 29.93 in 9.0 mi SSE 5.8 mph - N/A   Overcast
4:55 AM 66.2 °F 66.2 °F 100% 29.93 in 5.0 mi South 5.8 mph - N/A   Mostly Cloudy
5:55 AM 66.2 °F 66.2 °F 100% 29.94 in 3.0 mi SSE 4.6 mph - N/A   Overcast
6:55 AM 66.2 °F 66.2 °F 100% 29.95 in 4.0 mi SSE 4.6 mph - N/A   Overcast
7:55 AM 66.2 °F 66.2 °F 100% 29.94 in 5.0 mi SE 4.6 mph - N/A   Overcast
8:55 AM 66.2 °F 66.2 °F 100% 29.95 in 8.0 mi SE 6.9 mph - N/A   Overcast
9:55 AM 68.0 °F 68.0 °F 100% 29.94 in 4.0 mi SE 9.2 mph - N/A   Overcast
10:55 AM 68.0 °F 68.0 °F 100% 29.90 in 4.0 mi SE 10.4 mph - N/A   Overcast
11:55 AM 69.8 °F 68.0 °F 94% 29.88 in 4.0 mi SSE 12.7 mph - N/A Rain Rain
12:55 PM 69.8 °F 68.0 °F 94% 29.85 in 10.0 mi South 10.4 mph - N/A   Overcast
1:55 PM 71.6 °F 66.2 °F 83% 29.84 in 10.0 mi South 16.1 mph - N/A   Overcast
2:55 PM 71.6 °F 66.2 °F 83% 29.82 in 10.0 mi SSE 12.7 mph - N/A   Overcast
3:55 PM 71.6 °F 66.2 °F 83% 29.81 in 10.0 mi SSE 10.4 mph - N/A   Overcast
4:55 PM 71.6 °F 66.2 °F 83% 29.79 in 10.0 mi SE 10.4 mph - N/A   Overcast
5:55 PM 71.6 °F 64.4 °F 78% 29.78 in 10.0 mi SSE 10.4 mph - N/A   Overcast
6:55 PM 71.6 °F 64.4 °F 78% 29.80 in 10.0 mi South 8.1 mph - N/A   Overcast
7:55 PM 71.6 °F 64.4 °F 78% 29.77 in 10.0 mi SSE 12.7 mph - N/A   Overcast
8:55 PM 71.6 °F 64.4 °F 78% 29.75 in 10.0 mi SSE 13.8 mph - N/A   Partly Cloudy
9:55 PM 71.6 °F 64.4 °F 78% 29.74 in 10.0 mi SSE 12.7 mph - N/A   Partly Cloudy
10:55 PM 71.6 °F 64.4 °F 78% 29.73 in 10.0 mi SSE 13.8 mph - N/A   Partly Cloudy
11:55 PM 71.6 °F 64.4 °F 78% 29.72 in 10.0 mi South 13.8 mph - N/A   Overcast